When you browse on this site, cookies collect data to enhance your experience and personalize the content and advertising you see.
Visit our Privacy Policy to learn more. By continuing to use the site, you agree to this use of cookies and data.
  • Em Portugal
  • Lista de países
  • Para 7 dias
  • Temperatura da água
  • Mapas de satélite
  • Mapa do tempo
  • Widgets de tempo
  • user-avatar
    Iniciar Sessão

    Previsão horária em Tiba

    Hoje, 23 Abril, Terça-feira

    Tempo Temperatura Precipitação Vento Pressão Humidade
    00:00 +19°C° 0 mm 4 m/s 763 mmHg 45%
    01:00 +19°C° 0 mm 4 m/s 763 mmHg 46%
    02:00 +19°C° 0 mm 3 m/s 764 mmHg 46%
    03:00 +18°C° 0 mm 3 m/s 764 mmHg 46%
    04:00 +18°C° 0 mm 3 m/s 764 mmHg 47%
    05:00 +18°C° 0 mm 3 m/s 764 mmHg 48%
    06:00 +18°C° 0 mm 3 m/s 765 mmHg 49%
    07:00 +19°C° 0 mm 3 m/s 765 mmHg 46%
    08:00 +20°C° 0 mm 2 m/s 765 mmHg 43%
    09:00 +21°C° 0 mm 2 m/s 766 mmHg 42%
    10:00 +23°C° 0 mm 2 m/s 765 mmHg 39%
    11:00 +24°C° 0 mm 3 m/s 765 mmHg 37%
    12:00 +25°C° 0 mm 3 m/s 765 mmHg 34%
    13:00 +25°C° 0 mm 3 m/s 765 mmHg 36%
    14:00 +25°C° 0 mm 4 m/s 764 mmHg 38%
    15:00 +25°C° 0 mm 5 m/s 764 mmHg 40%
    16:00 +23°C° 0 mm 5 m/s 764 mmHg 45%
    17:00 +22°C° 0 mm 5 m/s 764 mmHg 50%
    18:00 +21°C° 0 mm 5 m/s 764 mmHg 55%
    19:00 +21°C° 0 mm 4 m/s 765 mmHg 60%
    20:00 +21°C° 0 mm 4 m/s 765 mmHg 65%
    21:00 +20°C° 0 mm 4 m/s 765 mmHg 70%
    22:00 +20°C° 0 mm 4 m/s 765 mmHg 73%
    23:00 +20°C° 0 mm 4 m/s 765 mmHg 77%

    Amanhã, 24 Abril, Quarta-feira

    Tempo Temperatura Precipitação Vento Pressão Humidade
    00:00 +20°C° 0 mm 4 m/s 765 mmHg 80%
    01:00 +20°C° 0.1 mm 4 m/s 764 mmHg 81%
    02:00 +20°C° 0.1 mm 4 m/s 764 mmHg 81%
    03:00 +20°C° 0.1 mm 4 m/s 764 mmHg 82%
    04:00 +20°C° 0 mm 4 m/s 764 mmHg 82%
    05:00 +20°C° 0 mm 4 m/s 764 mmHg 81%
    06:00 +20°C° 0 mm 4 m/s 764 mmHg 80%
    07:00 +20°C° 0.1 mm 4 m/s 764 mmHg 78%
    08:00 +20°C° 0.1 mm 5 m/s 764 mmHg 77%
    09:00 +21°C° 0.1 mm 5 m/s 763 mmHg 75%
    10:00 +21°C° 0.1 mm 5 m/s 763 mmHg 71%
    11:00 +22°C° 0.1 mm 6 m/s 763 mmHg 67%
    12:00 +23°C° 0.1 mm 6 m/s 763 mmHg 63%
    13:00 +23°C° 0.1 mm 6 m/s 762 mmHg 61%
    14:00 +23°C° 0.1 mm 7 m/s 761 mmHg 58%
    15:00 +24°C° 0.1 mm 7 m/s 761 mmHg 56%
    16:00 +23°C° 0 mm 7 m/s 760 mmHg 60%
    17:00 +22°C° 0 mm 7 m/s 760 mmHg 64%
    18:00 +22°C° 0 mm 7 m/s 760 mmHg 67%
    19:00 +21°C° 0.1 mm 7 m/s 759 mmHg 71%
    20:00 +21°C° 0.1 mm 7 m/s 759 mmHg 75%
    21:00 +20°C° 0.1 mm 7 m/s 759 mmHg 78%
    22:00 +21°C° 0 mm 7 m/s 758 mmHg 79%
    23:00 +21°C° 0 mm 7 m/s 758 mmHg 79%

    Depois de amanhã, 25 Abril, Quinta-feira

    Tempo Temperatura Precipitação Vento Pressão Humidade
    00:00 +21°C° 0 mm 7 m/s 757 mmHg 80%
    01:00 +21°C° 0.2 mm 7 m/s 756 mmHg 81%
    02:00 +21°C° 0.2 mm 7 m/s 755 mmHg 83%
    03:00 +21°C° 0.2 mm 7 m/s 755 mmHg 84%
    04:00 +21°C° 2.7 mm 7 m/s 754 mmHg 85%
    05:00 +21°C° 2.7 mm 7 m/s 754 mmHg 86%
    06:00 +21°C° 2.7 mm 6 m/s 753 mmHg 87%
    07:00 +21°C° 1.9 mm 7 m/s 753 mmHg 86%
    08:00 +21°C° 1.9 mm 7 m/s 752 mmHg 86%
    09:00 +22°C° 1.9 mm 8 m/s 752 mmHg 85%
    10:00 +22°C° 0.1 mm 7 m/s 751 mmHg 83%
    11:00 +23°C° 0.1 mm 7 m/s 751 mmHg 80%
    12:00 +23°C° 0.1 mm 6 m/s 750 mmHg 78%
    13:00 +26°C° 0 mm 6 m/s 750 mmHg 72%
    14:00 +27°C° 0 mm 6 m/s 749 mmHg 66%
    15:00 +28°C° 0 mm 6 m/s 749 mmHg 60%
    16:00 +27°C° 0 mm 5 m/s 749 mmHg 62%
    17:00 +27°C° 0 mm 5 m/s 749 mmHg 64%
    18:00 +26°C° 0 mm 4 m/s 749 mmHg 66%
    19:00 +25°C° 0 mm 3 m/s 749 mmHg 68%
    20:00 +25°C° 0 mm 3 m/s 749 mmHg 70%
    21:00 +24°C° 0 mm 2 m/s 750 mmHg 72%
    22:00 +24°C° 0 mm 2 m/s 749 mmHg 73%
    23:00 +23°C° 0 mm 2 m/s 749 mmHg 74%

    26 Abril, Sexta-feira

    Tempo Temperatura Precipitação Vento Pressão Humidade
    00:00 +23°C° 0 mm 2 m/s 749 mmHg 75%
    01:00 +21°C° 0 mm 3 m/s 749 mmHg 77%
    02:00 +21°C° 0 mm 3 m/s 748 mmHg 80%
    03:00 +20°C° 0 mm 4 m/s 748 mmHg 83%
    04:00 +20°C° 0.1 mm 4 m/s 748 mmHg 82%
    05:00 +19°C° 0.1 mm 4 m/s 748 mmHg 81%
    06:00 +19°C° 0.1 mm 5 m/s 748 mmHg 79%
    07:00 +19°C° 0.1 mm 4 m/s 749 mmHg 78%
    08:00 +19°C° 0.1 mm 4 m/s 749 mmHg 77%
    09:00 +19°C° 0.1 mm 3 m/s 749 mmHg 75%
    10:00 +19°C° 0.2 mm 4 m/s 749 mmHg 75%
    11:00 +19°C° 0.2 mm 4 m/s 749 mmHg 74%
    12:00 +19°C° 0.2 mm 4 m/s 749 mmHg 73%
    13:00 +18°C° 1.1 mm 4 m/s 749 mmHg 73%
    14:00 +18°C° 1.1 mm 4 m/s 750 mmHg 73%
    15:00 +17°C° 1.1 mm 4 m/s 750 mmHg 72%
    16:00 +17°C° 0.1 mm 4 m/s 751 mmHg 71%
    17:00 +17°C° 0.1 mm 4 m/s 751 mmHg 69%
    18:00 +17°C° 0.1 mm 4 m/s 752 mmHg 68%
    19:00 +17°C° 0.6 mm 4 m/s 753 mmHg 66%
    20:00 +15°C° 0.6 mm 4 m/s 754 mmHg 64%
    21:00 +15°C° 0.6 mm 5 m/s 754 mmHg 61%
    22:00 +14°C° 0.6 mm 5 m/s 754 mmHg 63%
    23:00 +13°C° 0.6 mm 5 m/s 754 mmHg 64%

    27 Abril, Sábado

    Tempo Temperatura Precipitação Vento Pressão Humidade
    00:00 +13°C° 0.6 mm 5 m/s 755 mmHg 66%
    01:00 +12°C° 2.2 mm 5 m/s 755 mmHg 69%
    02:00 +11°C° 2.2 mm 4 m/s 755 mmHg 73%
    03:00 +10°C° 2.2 mm 4 m/s 755 mmHg 76%
    04:00 +9°C° 1.7 mm 5 m/s 756 mmHg 72%
    05:00 +9°C° 1.7 mm 5 m/s 757 mmHg 69%
    06:00 +9°C° 1.7 mm 5 m/s 758 mmHg 65%
    07:00 +9°C° 0.3 mm 5 m/s 758 mmHg 59%
    08:00 +11°C° 0.3 mm 4 m/s 759 mmHg 54%
    09:00 +11°C° 0.3 mm 4 m/s 759 mmHg 49%
    10:00 +12°C° 0 mm 4 m/s 759 mmHg 43%
    11:00 +13°C° 0 mm 3 m/s 759 mmHg 38%
    12:00 +14°C° 0 mm 3 m/s 760 mmHg 32%
    13:00 +15°C° 0 mm 4 m/s 760 mmHg 29%
    14:00 +17°C° 0 mm 4 m/s 760 mmHg 26%
    15:00 +16°C° 0 mm 5 m/s 760 mmHg 22%
    16:00 +16°C° 0 mm 5 m/s 761 mmHg 22%
    17:00 +16°C° 0 mm 6 m/s 762 mmHg 22%
    18:00 +15°C° 0 mm 6 m/s 762 mmHg 23%
    19:00 +14°C° 0 mm 6 m/s 763 mmHg 24%
    20:00 +13°C° 0 mm 5 m/s 764 mmHg 25%
    21:00 +13°C° 0 mm 5 m/s 765 mmHg 26%
    22:00 +12°C° 0 mm 5 m/s 765 mmHg 28%
    23:00 +12°C° 0 mm 4 m/s 766 mmHg 30%

    28 Abril, Domingo

    Tempo Temperatura Precipitação Vento Pressão Humidade
    00:00 +11°C° 0 mm 4 m/s 766 mmHg 32%
    01:00 +11°C° 0 mm 3 m/s 766 mmHg 33%
    02:00 +11°C° 0 mm 3 m/s 766 mmHg 34%
    03:00 +10°C° 0 mm 2 m/s 767 mmHg 36%
    04:00 +10°C° 0 mm 2 m/s 767 mmHg 36%
    05:00 +10°C° 0 mm 2 m/s 768 mmHg 36%
    06:00 +12°C° 0 mm 2 m/s 768 mmHg 37%
    07:00 +13°C° 0 mm 2 m/s 768 mmHg 33%
    08:00 +14°C° 0 mm 2 m/s 769 mmHg 29%
    09:00 +15°C° 0 mm 2 m/s 769 mmHg 25%
    10:00 +16°C° 0 mm 2 m/s 768 mmHg 23%
    11:00 +17°C° 0 mm 2 m/s 768 mmHg 21%
    12:00 +19°C° 0 mm 2 m/s 768 mmHg 19%
    13:00 +19°C° 0 mm 3 m/s 768 mmHg 20%
    14:00 +19°C° 0 mm 3 m/s 767 mmHg 22%
    15:00 +19°C° 0 mm 4 m/s 767 mmHg 24%
    16:00 +18°C° 0 mm 4 m/s 767 mmHg 29%
    17:00 +16°C° 0 mm 5 m/s 767 mmHg 34%
    18:00 +15°C° 0 mm 5 m/s 768 mmHg 40%
    19:00 +15°C° 0 mm 5 m/s 768 mmHg 41%
    20:00 +15°C° 0 mm 5 m/s 768 mmHg 43%
    21:00 +15°C° 0 mm 5 m/s 769 mmHg 45%
    22:00 +15°C° 0 mm 4 m/s 769 mmHg 47%
    23:00 +14°C° 0 mm 4 m/s 769 mmHg 49%
    Mostrar mais